Home > Weather > Port Moresby > Past weeks

Flag for Papua New Guinea Past Weather in Port Moresby, Papua New Guinea — Yesterday and Last 2 Weeks

Now
86 °F

Scattered clouds.


Feels Like: 95 °F
Forecast: 78 / 92 °F
Wind: 7 mph from South

Location: Moresby

Current Time: May 30, 2016 at 1:02:52 PM

Latest Report: May 30, 2016 at 12:00 PM


Visibility: N/A

Pressure: 29.86 "Hg

Humidity: 70%

Dew Point: 75 °F

Location of Port MoresbyLocation

Past Weather in Port Moresby — Graph

°F

Port Moresby Temperature Yesterday

Maximum temperature yesterday: 88 °F (at 3:00 PM)
Minimum temperature yesterday: 79 °F (at 8:00 AM)
Average temperature yesterday: 84 °F

High & Low Weather Summary for the Past Weeks

 TemperatureHumidityPressure
High91 °F (May 22, 1:00 PM)100% (May 15, 10:00 PM)29.92 "Hg (May 15, 10:00 PM)
Low64 °F (May 24, 7:00 AM)28% (May 18, 2:00 AM)29.65 "Hg (May 15, 3:00 PM)
Average83 °F81%29.80 "Hg
* Reported May 15 3:00 PM — May 30 12:00 PM, Port Moresby, Weather by CustomWeather, © 2016

Note: Actual official high and low records may vary slightly from our data, if they occured in-between our weather recording intervals... More about our weather records

Advertising

Port Moresby Weather History for the Previous 24 Hours

Scroll right to see more
 ConditionsComfort  
Time TempWeatherWind HumidityBarometerVisibility
12:00 PM
Mon, May 30
86 °FScattered clouds.7 mph70%29.86 "HgN/A
9:00 AM84 °FPartly sunny.7 mph74%29.89 "HgN/A
8:00 AM79 °FFog.2 mph89%29.86 "HgN/A
7:00 AM77 °FScattered clouds.No wind89%29.86 "HgN/A
6:00 AM77 °FPartly cloudy.No wind89%29.83 "HgN/A
5:00 AM77 °FPassing clouds.No wind89%29.83 "HgN/A
4:00 AM79 °FPassing clouds.No wind84%29.80 "HgN/A
3:00 AM81 °FPassing clouds.3 mph79%29.80 "HgN/A
2:00 AM81 °FPartly cloudy.3 mph79%29.83 "HgN/A
1:00 AM81 °FPassing clouds.7 mph79%29.83 "HgN/A
12:00 AM81 °FPassing clouds.3 mph79%29.86 "HgN/A
11:00 PM
Sun, May 29
82 °FPassing clouds.9 mph79%29.86 "HgN/A
10:00 PM82 °FPassing clouds.7 mph79%29.86 "HgN/A
9:00 PM82 °FPassing clouds.12 mph79%29.86 "HgN/A
8:00 PM82 °FPassing clouds.12 mph74%29.86 "HgN/A
7:00 PM84 °FPassing clouds.14 mph70%29.83 "HgN/A
6:00 PM84 °FPassing clouds.12 mph74%29.80 "HgN/A
5:00 PM84 °FScattered clouds.12 mph79%29.80 "HgN/A
4:00 PM86 °FPartly sunny.12 mph70%29.80 "HgN/A
3:00 PM88 °FPartly sunny.12 mph70%29.77 "HgN/A
2:00 PM86 °FPartly sunny.9 mph70%29.80 "HgN/A
Weather by CustomWeather, © 2016

See weather overviewHow to use our weather pages